When you browse on this site, cookies collect data to enhance your experience and personalize the content and advertising you see.
Visit our Privacy Policy to learn more. By continuing to use the site, you agree to this use of cookies and data.
  • în România
  • Lista ţărilor
  • Pe 7 zile
  • Temperatura apei
  • Meteo pe hartă
  • Widget-uri
  • user-avatar
    Intrare

    Meteo pe oră la Selfoss

    Astăzi, 12 Noiembrie, Marţi

    Timp Temperatura Precipitaţii Vânt Presiune Umiditate
    00:00 +1°C° 0.2 mm 6 m/s 748 mmHg 90%
    01:00 +1°C° 0.2 mm 5 m/s 748 mmHg 92%
    02:00 +1°C° 0.2 mm 4 m/s 749 mmHg 94%
    03:00 +2°C° 0.1 mm 3 m/s 749 mmHg 92%
    04:00 +2°C° 0.1 mm 3 m/s 750 mmHg 91%
    05:00 +2°C° 0.1 mm 3 m/s 750 mmHg 90%
    06:00 +2°C° 0.2 mm 3 m/s 751 mmHg 91%
    07:00 +2°C° 0.2 mm 3 m/s 751 mmHg 91%
    08:00 +2°C° 0.2 mm 3 m/s 751 mmHg 92%
    09:00 +1°C° 0.3 mm 3 m/s 751 mmHg 92%
    10:00 +1°C° 0.3 mm 3 m/s 752 mmHg 92%
    11:00 +1°C° 0.3 mm 3 m/s 752 mmHg 93%
    12:00 +1°C° 0.4 mm 3 m/s 752 mmHg 92%
    13:00 +1°C° 0.4 mm 3 m/s 752 mmHg 92%
    14:00 +1°C° 0.4 mm 3 m/s 751 mmHg 91%
    15:00 0°C° 0.2 mm 3 m/s 751 mmHg 90%
    16:00 0°C° 0.2 mm 3 m/s 751 mmHg 88%
    17:00 -2°C° 0.2 mm 4 m/s 751 mmHg 87%
    18:00 -2°C° 0 mm 4 m/s 750 mmHg 86%
    19:00 -3°C° 0 mm 4 m/s 750 mmHg 84%
    20:00 -3°C° 0 mm 4 m/s 750 mmHg 83%
    21:00 -3°C° 0 mm 4 m/s 750 mmHg 82%
    22:00 -3°C° 0 mm 4 m/s 749 mmHg 81%
    23:00 -4°C° 0 mm 4 m/s 749 mmHg 81%

    Mâine, 13 Noiembrie, Miercuri

    Timp Temperatura Precipitaţii Vânt Presiune Umiditate
    00:00 -3°C° 0 mm 4 m/s 749 mmHg 80%
    01:00 -3°C° 0 mm 4 m/s 749 mmHg 79%
    02:00 -3°C° 0 mm 4 m/s 749 mmHg 79%
    03:00 -3°C° 0 mm 4 m/s 750 mmHg 79%
    04:00 -3°C° 0 mm 4 m/s 750 mmHg 78%
    05:00 -3°C° 0 mm 4 m/s 750 mmHg 78%
    06:00 -3°C° 0 mm 4 m/s 751 mmHg 76%
    07:00 -3°C° 0 mm 4 m/s 752 mmHg 74%
    08:00 -2°C° 0 mm 3 m/s 752 mmHg 72%
    09:00 -2°C° 0 mm 3 m/s 753 mmHg 70%
    10:00 -2°C° 0 mm 3 m/s 754 mmHg 69%
    11:00 -4°C° 0 mm 4 m/s 754 mmHg 68%
    12:00 -4°C° 0 mm 3 m/s 755 mmHg 67%
    13:00 -4°C° 0 mm 3 m/s 756 mmHg 66%
    14:00 -2°C° 0 mm 3 m/s 756 mmHg 65%
    15:00 -4°C° 0 mm 3 m/s 757 mmHg 65%
    16:00 -4°C° 0 mm 3 m/s 758 mmHg 66%
    17:00 -4°C° 0 mm 3 m/s 758 mmHg 66%
    18:00 -4°C° 0 mm 3 m/s 759 mmHg 66%
    19:00 -4°C° 0 mm 3 m/s 760 mmHg 66%
    20:00 -3°C° 0 mm 2 m/s 760 mmHg 67%
    21:00 -3°C° 0 mm 2 m/s 761 mmHg 67%
    22:00 -4°C° 0 mm 2 m/s 761 mmHg 67%
    23:00 -4°C° 0 mm 2 m/s 761 mmHg 67%

    Poimâine, 14 Noiembrie, Joi

    Timp Temperatura Precipitaţii Vânt Presiune Umiditate
    00:00 -4°C° 0 mm 2 m/s 762 mmHg 66%
    01:00 -4°C° 0 mm 2 m/s 762 mmHg 66%
    02:00 -4°C° 0 mm 2 m/s 763 mmHg 65%
    03:00 -4°C° 0 mm 2 m/s 763 mmHg 65%
    04:00 -4°C° 0 mm 2 m/s 764 mmHg 64%
    05:00 -4°C° 0 mm 2 m/s 764 mmHg 64%
    06:00 -4°C° 0 mm 2 m/s 765 mmHg 63%
    07:00 -4°C° 0 mm 2 m/s 765 mmHg 62%
    08:00 -5°C° 0 mm 3 m/s 766 mmHg 62%
    09:00 -4°C° 0 mm 2 m/s 766 mmHg 61%
    10:00 -4°C° 0 mm 2 m/s 766 mmHg 60%
    11:00 -4°C° 0 mm 2 m/s 766 mmHg 60%
    12:00 -4°C° 0 mm 2 m/s 766 mmHg 60%
    13:00 -4°C° 0 mm 2 m/s 767 mmHg 59%
    14:00 -4°C° 0 mm 2 m/s 767 mmHg 59%
    15:00 -5°C° 0 mm 3 m/s 766 mmHg 60%
    16:00 -5°C° 0 mm 3 m/s 766 mmHg 60%
    17:00 -5°C° 0 mm 3 m/s 766 mmHg 61%
    18:00 -4°C° 0 mm 3 m/s 766 mmHg 61%
    19:00 -4°C° 0 mm 3 m/s 765 mmHg 62%
    20:00 -4°C° 0 mm 4 m/s 765 mmHg 63%
    21:00 -4°C° 0 mm 4 m/s 765 mmHg 66%
    22:00 -4°C° 0 mm 5 m/s 764 mmHg 69%
    23:00 -2°C° 0 mm 5 m/s 764 mmHg 73%

    15 Noiembrie, Vineri

    Timp Temperatura Precipitaţii Vânt Presiune Umiditate
    00:00 -3°C° 0 mm 6 m/s 762 mmHg 76%
    01:00 -2°C° 0 mm 8 m/s 761 mmHg 79%
    02:00 -1°C° 0 mm 9 m/s 760 mmHg 82%
    03:00 -2°C° 0.8 mm 10 m/s 759 mmHg 86%
    04:00 -2°C° 0.8 mm 10 m/s 757 mmHg 89%
    05:00 -1°C° 0.8 mm 11 m/s 756 mmHg 93%
    06:00 -1°C° 2.9 mm 12 m/s 755 mmHg 94%
    07:00 0°C° 2.9 mm 13 m/s 754 mmHg 95%
    08:00 0°C° 2.9 mm 13 m/s 753 mmHg 96%
    09:00 +1°C° 3.2 mm 11 m/s 753 mmHg 96%
    10:00 +1°C° 3.2 mm 8 m/s 752 mmHg 96%
    11:00 +3°C° 3.2 mm 6 m/s 752 mmHg 96%
    12:00 +2°C° 0.8 mm 5 m/s 752 mmHg 96%
    13:00 +1°C° 0.8 mm 4 m/s 752 mmHg 95%
    14:00 +1°C° 0.8 mm 3 m/s 751 mmHg 95%
    15:00 +1°C° 0.1 mm 3 m/s 751 mmHg 92%
    16:00 +1°C° 0.1 mm 3 m/s 752 mmHg 90%
    17:00 -1°C° 0.1 mm 4 m/s 752 mmHg 87%
    18:00 -1°C° 0.1 mm 4 m/s 752 mmHg 85%
    19:00 -1°C° 0.1 mm 4 m/s 752 mmHg 82%
    20:00 -1°C° 0.1 mm 4 m/s 752 mmHg 79%
    21:00 -1°C° 0.1 mm 4 m/s 753 mmHg 77%
    22:00 -1°C° 0.1 mm 4 m/s 753 mmHg 74%
    23:00 -1°C° 0.1 mm 4 m/s 753 mmHg 72%

    16 Noiembrie, Sâmbătă

    Timp Temperatura Precipitaţii Vânt Presiune Umiditate
    00:00 -1°C° 0.2 mm 4 m/s 753 mmHg 71%
    01:00 -1°C° 0.2 mm 5 m/s 752 mmHg 71%
    02:00 -1°C° 0.2 mm 5 m/s 752 mmHg 70%
    03:00 -1°C° 0.2 mm 5 m/s 752 mmHg 71%
    04:00 -1°C° 0.2 mm 4 m/s 752 mmHg 71%
    05:00 -1°C° 0.2 mm 4 m/s 752 mmHg 71%
    06:00 -1°C° 0.1 mm 4 m/s 752 mmHg 72%
    07:00 -1°C° 0.1 mm 4 m/s 752 mmHg 72%
    08:00 -1°C° 0.1 mm 4 m/s 752 mmHg 73%
    09:00 -1°C° 0.1 mm 5 m/s 752 mmHg 73%
    10:00 -1°C° 0.1 mm 5 m/s 753 mmHg 74%
    11:00 -1°C° 0.1 mm 5 m/s 753 mmHg 74%
    12:00 -1°C° 0.1 mm 5 m/s 753 mmHg 74%
    13:00 -1°C° 0.1 mm 5 m/s 753 mmHg 75%
    14:00 -1°C° 0.1 mm 5 m/s 754 mmHg 75%
    15:00 -1°C° 0.1 mm 5 m/s 754 mmHg 74%
    16:00 -1°C° 0.1 mm 5 m/s 754 mmHg 72%
    17:00 -2°C° 0.1 mm 6 m/s 755 mmHg 71%
    18:00 -2°C° 0.1 mm 6 m/s 755 mmHg 71%
    19:00 -2°C° 0.1 mm 6 m/s 756 mmHg 71%
    20:00 -2°C° 0.1 mm 6 m/s 756 mmHg 70%
    21:00 -1°C° 0 mm 5 m/s 756 mmHg 70%
    22:00 -1°C° 0 mm 5 m/s 757 mmHg 70%
    23:00 -1°C° 0 mm 5 m/s 757 mmHg 70%

    17 Noiembrie, Duminică

    Timp Temperatura Precipitaţii Vânt Presiune Umiditate
    00:00 -2°C° 0 mm 4 m/s 757 mmHg 70%
    01:00 -2°C° 0 mm 4 m/s 758 mmHg 71%
    02:00 -1°C° 0 mm 3 m/s 758 mmHg 72%
    03:00 -1°C° 0 mm 3 m/s 758 mmHg 74%
    04:00 -1°C° 0 mm 2 m/s 758 mmHg 76%
    05:00 -1°C° 0 mm 2 m/s 759 mmHg 78%
    06:00 -1°C° 0.1 mm 2 m/s 759 mmHg 82%
    07:00 -1°C° 0.1 mm 2 m/s 760 mmHg 86%
    08:00 -1°C° 0.1 mm 2 m/s 760 mmHg 89%
    09:00 -1°C° 0.1 mm 2 m/s 760 mmHg 90%
    10:00 -1°C° 0.1 mm 2 m/s 760 mmHg 90%
    11:00 -1°C° 0.1 mm 2 m/s 760 mmHg 91%
    12:00 -1°C° 0.1 mm 2 m/s 760 mmHg 91%
    13:00 -1°C° 0.1 mm 3 m/s 760 mmHg 92%
    14:00 -1°C° 0.1 mm 3 m/s 760 mmHg 92%
    15:00 -2°C° 0.1 mm 4 m/s 760 mmHg 91%
    16:00 -2°C° 0.1 mm 4 m/s 759 mmHg 91%
    17:00 -2°C° 0.1 mm 5 m/s 759 mmHg 90%
    18:00 -2°C° 0.1 mm 5 m/s 759 mmHg 89%
    19:00 -4°C° 0.1 mm 6 m/s 759 mmHg 87%
    20:00 -4°C° 0.1 mm 6 m/s 759 mmHg 86%
    21:00 -4°C° 0.1 mm 6 m/s 758 mmHg 86%
    22:00 -4°C° 0.1 mm 6 m/s 758 mmHg 85%
    23:00 -4°C° 0.1 mm 6 m/s 758 mmHg 84%
    Arată mai mult